Wind_Speed
13 12 12 13 12 11 13 15 14 14 13 11 11 10 9 11 13 12 19 25 20 17 18 14 13 19 22 20 17 17 20 22 24 26 26 26 27 26 27 27 30 33 30 28 27 26 26 22 21 22 23 23 23 24 26 28 29 29 30 29 27 27 27 27 27 26 26 27 28 28 29 29 28 27 27 27 28 28 29 29 28 28 27 26 26 26
14 13 15 16 13 11 12 13 13 13 14 13 12 11 11 10 12 15 18 18 17 17 15 12 13 19 24 23 23 20 19 20 23 26 25 26 27 27 28 28 29 33 32 29 24 23 24 21 19 22 22 22 23 24 26 27 28 29 30 29 28 27 27 27 27 27 26 26 27 27 28 28 29 29 28 28 29 29 29 29 29 29 29 28 28 28
14 15 20 18 14 13 14 13 13 14 13 12 12 12 13 12 12 17 20 15 15 16 14 13 14 17 20 22 25 22 18 19 22 24 25 26 27 27 28 28 28 30 31 28 23 22 23 21 21 23 23 22 22 24 25 26 27 28 30 30 27 27 26 26 26 26 26 25 25 26 26 26 27 28 29 29 30 30 30 31 31 31 30 30 29 29
10 13 18 16 15 17 15 15 15 14 14 14 13 15 15 13 13 18 22 20 18 17 17 18 18 17 16 18 23 22 19 20 20 21 23 24 25 26 26 26 26 27 28 26 23 23 24 23 23 23 23 22 23 24 25 26 27 28 31 30 28 27 26 25 25 26 27 26 25 25 25 25 26 27 28 29 29 30 31 31 32 31 31 30 29 29
13 18 17 12 14 17 16 17 17 16 17 17 17 18 16 13 15 18 21 21 17 16 19 21 23 20 17 19 23 23 23 23 21 22 23 23 23 24 24 24 24 25 26 26 23 22 23 24 23 23 24 23 24 24 24 26 27 29 32 32 30 28 27 25 24 26 27 26 26 25 25 25 25 26 26 27 27 28 29 29 30 30 29 29 28 28
17 23 18 14 14 15 16 17 18 18 19 19 19 21 21 19 20 19 21 23 18 16 19 20 22 19 16 19 21 23 24 22 22 23 23 24 24 24 25 24 25 25 26 27 26 23 22 23 23 24 25 25 25 25 25 27 29 31 33 34 33 30 28 26 24 25 27 27 26 26 25 25 25 25 25 26 26 27 27 27 27 27 27 27 27 27
21 21 16 16 15 14 16 17 18 19 19 20 19 20 24 26 27 24 24 26 22 20 22 21 21 18 16 19 21 23 24 22 22 24 25 26 26 26 27 27 27 27 27 28 28 24 22 23 24 24 24 25 26 27 29 30 31 32 34 36 35 32 29 27 25 26 27 26 26 26 25 25 25 24 24 25 25 26 26 27 27 26 26 25 25 25
23 20 17 16 14 14 16 16 18 18 18 21 21 21 22 24 28 27 25 26 24 23 26 25 22 21 20 20 21 24 23 20 22 25 25 27 28 28 29 30 30 29 28 28 28 26 23 23 25 25 25 27 28 30 32 32 32 34 35 37 37 35 31 29 27 27 28 26 25 25 25 24 24 24 24 24 25 25 25 26 26 26 25 24 24 23
23 20 18 16 15 15 13 15 19 17 18 22 22 21 21 21 24 24 22 24 23 24 27 25 23 25 25 22 25 30 26 22 24 26 27 27 28 29 29 30 30 29 29 29 28 29 26 25 27 27 27 28 29 31 33 33 33 35 37 38 38 36 33 31 30 28 28 26 24 24 24 24 24 23 24 24 24 25 25 24 24 24 24 23 23 23
22 19 18 17 16 15 14 16 19 17 17 21 21 20 20 20 21 21 21 20 21 25 25 22 23 25 23 20 23 29 26 22 23 26 28 30 29 28 28 28 30 30 30 30 29 30 29 29 29 30 30 30 31 32 33 34 35 36 38 39 40 38 35 33 31 29 27 26 24 23 22 23 23 23 23 24 24 24 24 23 23 22 22 22 22 22
22 20 19 18 17 18 18 18 17 16 18 20 20 19 19 19 19 20 20 19 22 25 23 22 24 26 24 19 19 25 26 21 22 25 26 28 29 28 28 28 31 31 31 31 31 31 31 31 31 32 33 33 33 34 35 36 36 37 39 40 41 39 35 32 30 28 26 24 23 22 21 21 22 22 23 23 23 23 22 22 21 20 20 20 20 20
19 18 19 19 17 19 20 19 17 17 18 19 18 18 18 19 19 19 18 18 21 22 21 21 24 26 26 20 20 27 27 24 24 25 27 30 30 30 30 30 31 32 31 32 32 33 33 33 34 34 35 35 36 36 37 37 37 39 40 41 42 39 34 29 27 26 24 23 22 21 20 20 20 21 22 22 21 21 21 20 20 19 19 18 18 18
14 13 16 17 15 16 17 16 16 16 16 17 16 16 18 18 17 17 18 18 18 18 18 18 19 23 22 20 25 29 27 25 25 26 28 29 29 29 29 29 29 30 31 31 32 33 34 34 35 36 37 38 38 38 38 38 39 40 40 42 42 36 29 26 25 24 22 21 21 20 19 19 19 20 21 21 20 19 19 19 19 18 18 18 17 17
10 9 11 11 11 13 13 12 12 13 14 14 14 16 18 18 17 18 18 16 14 16 19 18 18 20 19 22 28 28 26 27 27 27 27 26 26 27 26 25 25 26 27 28 29 31 32 33 34 36 38 38 38 38 39 39 41 41 41 42 39 31 27 25 24 23 21 21 21 21 20 19 19 20 20 20 19 18 18 17 18 18 17 17 17 16
10 10 12 11 9 9 9 9 10 11 11 12 13 15 17 17 18 19 18 15 13 16 20 20 19 19 18 22 25 24 25 26 25 26 26 27 26 24 23 23 23 23 23 24 25 27 28 30 31 33 35 35 35 35 37 38 38 38 39 38 32 27 26 25 24 23 22 22 22 22 20 19 19 20 20 20 19 19 18 18 19 19 19 18 18 17
11 9 14 15 11 9 9 10 11 10 10 11 13 14 15 16 18 20 20 18 18 19 21 21 20 20 21 24 25 24 24 24 25 27 27 28 28 26 25 25 25 23 22 22 23 25 26 27 28 29 29 29 30 31 31 32 32 33 33 31 28 27 26 24 23 23 23 23 23 22 21 19 19 20 20 20 20 19 20 20 20 20 20 20 19 19
11 10 14 14 11 12 12 11 11 10 10 12 12 13 15 15 17 19 20 20 21 22 23 24 24 24 25 26 27 26 26 26 27 28 28 27 28 28 28 27 25 23 22 22 22 23 24 26 26 26 25 25 25 25 25 25 26 27 28 27 27 27 24 22 22 23 23 24 23 22 22 21 21 21 20 20 20 20 20 20 20 20 19 19 19 19
14 15 15 12 12 14 12 11 12 11 11 13 13 14 15 16 16 18 19 20 21 22 23 23 24 25 24 24 25 24 23 24 25 25 26 26 26 27 28 26 25 24 23 22 22 22 23 23 24 24 23 23 23 22 22 22 23 24 26 26 26 24 22 21 24 24 25 26 25 23 24 23 23 22 21 21 21 21 21 21 21 20 20 19 19 19
16 16 15 13 15 16 12 13 14 13 13 14 15 16 15 14 15 17 19 21 21 22 23 22 22 23 20 20 24 22 19 22 23 23 23 24 25 26 27 26 25 24 23 22 22 22 22 22 22 22 23 23 23 24 24 24 24 25 25 25 24 23 22 23 26 27 27 27 25 24 25 25 24 23 22 22 21 22 23 22 23 22 21 20 19 18
17 16 17 16 18 16 13 15 15 15 16 15 16 16 14 15 17 17 19 22 22 23 23 23 23 21 16 17 23 23 20 22 22 23 24 24 24 25 25 26 25 24 23 23 23 22 22 22 22 23 24 25 27 28 27 27 27 26 26 25 25 25 25 26 28 29 29 27 25 25 25 25 25 24 24 23 23 23 23 23 24 23 22 20 18 17
20 20 19 18 20 19 16 18 17 15 16 16 16 16 15 18 19 19 21 21 22 22 23 24 24 22 19 22 24 23 24 25 22 23 25 25 24 24 24 26 27 26 25 24 24 23 23 24 24 27 29 29 30 32 32 32 31 31 30 30 29 29 29 30 31 32 31 28 26 25 25 26 26 25 25 24 24 24 25 25 24 24 23 21 19 17
22 23 21 20 22 21 19 21 20 17 17 18 20 20 19 19 20 21 23 22 22 24 24 24 25 25 26 27 26 24 27 29 25 24 25 24 24 24 25 27 28 28 28 27 26 25 26 26 27 29 31 30 30 31 32 33 33 33 35 36 34 34 33 33 33 34 34 32 30 27 26 26 26 25 25 25 25 25 27 27 26 25 25 24 22 19
23 24 25 24 24 23 23 25 25 22 22 23 25 25 24 23 22 24 26 25 26 27 26 27 29 30 30 30 27 27 29 30 27 27 28 27 27 26 27 29 29 30 31 31 30 29 28 29 29 30 31 30 29 27 28 29 29 30 33 34 34 36 37 36 34 35 37 36 33 30 29 28 28 28 26 26 27 27 27 27 26 26 26 27 26 23
25 26 28 28 28 27 26 28 30 29 28 29 30 29 29 28 27 28 29 29 31 30 28 30 31 32 33 33 31 30 30 31 31 32 32 32 32 31 30 30 31 32 33 34 35 34 32 31 32 32 32 31 29 28 28 29 29 29 29 29 30 32 36 38 38 38 40 40 35 32 32 31 30 29 29 29 29 29 29 29 29 28 27 27 27 25
27 27 30 30 30 30 29 29 30 30 30 31 31 30 31 31 30 30 30 31 32 30 31 34 34 33 35 36 34 32 30 30 32 33 33 34 34 34 32 31 32 34 35 36 37 38 37 36 35 35 35 34 32 30 30 30 31 32 32 32 31 30 32 36 39 40 40 41 38 33 33 32 30 29 31 33 33 32 31 30 29 29 29 30 30 29
31 30 32 32 32 32 30 28 27 28 30 32 31 29 31 33 31 30 31 34 33 30 31 35 36 36 37 37 37 36 35 34 34 35 36 35 35 35 34 34 34 34 34 36 37 38 40 40 39 38 38 37 36 34 34 34 34 34 35 36 36 36 35 37 39 37 36 37 37 34 33 34 33 33 34 35 34 32 31 30 29 30 30 32 33 32
34 34 34 35 35 35 33 31 31 33 34 35 36 35 34 35 34 32 34 36 35 34 35 35 35 37 38 38 39 39 37 35 36 36 37 38 39 38 38 38 37 36 35 35 36 37 39 40 41 42 41 41 40 40 39 38 38 38 38 39 39 40 41 41 41 39 37 36 36 35 34 37 40 39 35 34 33 32 32 33 33 33 34 36 36 35
37 38 37 37 38 38 37 37 37 39 40 40 41 42 40 39 38 37 37 36 35 38 37 35 35 37 36 37 40 40 38 36 35 35 36 38 40 40 40 41 42 42 42 41 41 40 41 41 42 42 43 43 43 43 42 41 41 41 41 42 42 43 44 44 42 41 40 39 38 36 37 41 45 43 37 35 35 35 36 37 37 38 37 35 33 33
40 41 40 39 39 39 39 39 39 41 43 43 44 45 44 43 43 42 42 39 37 37 37 35 38 40 38 37 38 37 37 36 35 35 36 38 38 38 39 41 42 44 45 46 47 46 46 45 44 43 43 44 44 45 44 43 42 42 43 43 43 44 45 46 45 43 41 41 41 40 40 42 44 43 41 40 39 37 38 39 39 40 40 36 34 35
42 42 42 42 43 43 42 42 42 44 45 45 45 46 46 45 45 45 44 43 39 37 37 37 38 39 39 40 39 37 37 38 38 38 38 38 37 38 39 39 40 42 43 45 46 47 48 47 45 44 44 44 45 46 46 45 44 44 43 43 43 44 45 46 46 45 44 43 44 45 46 46 45 44 42 41 40 39 38 39 40 42 44 45 45 42
41 40 41 41 43 45 44 43 44 44 45 46 45 45 46 47 46 45 45 45 43 41 39 38 40 41 40 41 42 41 42 43 42 41 40 39 38 38 38 38 39 40 41 42 42 42 43 44 43 43 43 43 45 46 46 47 46 46 44 44 44 44 44 45 45 44 45 45 45 46 48 49 49 48 46 44 42 41 40 40 42 43 44 46 46 43
38 38 39 40 42 44 44 43 44 44 46 48 47 47 47 47 47 45 44 44 44 42 41 41 43 43 41 41 42 42 43 44 44 42 41 41 42 41 40 40 41 42 43 44 43 41 41 42 42 42 42 43 44 44 45 46 46 46 45 45 45 45 45 46 46 46 47 47 46 47 48 49 50 50 50 49 48 47 46 45 45 46 46 45 45 44
37 36 37 39 43 44 43 43 45 47 49 50 47 46 46 45 44 44 44 44 43 42 42 43 44 42 41 42 42 41 42 42 41 41 42 42 43 43 42 42 43 44 46 48 47 45 45 45 44 42 41 42 43 43 44 45 45 46 45 45 46 46 46 47 47 48 50 51 51 51 51 52 52 52 52 52 52 52 52 52 52 51 50 49 49 48
40 40 40 41 44 46 44 43 45 48 51 50 45 44 44 42 42 42 43 44 43 42 41 43 44 43 42 43 43 43 44 43 41 42 43 43 45 46 44 43 44 46 47 48 47 48 49 48 45 43 43 43 44 43 44 44 45 45 46 46 46 46 47 48 48 49 50 52 54 54 55 55 55 55 55 54 54 54 54 54 54 54 53 53 53 53
44 45 44 42 43 46 45 45 47 49 49 46 43 45 45 43 41 42 43 43 44 43 42 42 44 45 44 45 45 45 45 45 45 45 46 46 47 49 47 45 46 49 51 50 50 52 52 49 47 47 46 46 45 44 45 45 45 45 45 46 46 46 47 48 48 49 50 50 52 53 55 56 56 57 57 57 57 57 56 56 56 56 55 55 55 55
46 47 46 44 45 47 47 47 49 48 46 42 42 46 47 43 42 44 45 45 45 45 44 44 46 47 47 48 48 47 47 48 48 49 49 47 47 48 49 48 48 50 52 53 54 55 52 48 48 49 48 47 47 47 47 47 46 46 46 46 46 46 47 47 48 49 49 50 50 51 52 54 55 56 57 57 58 58 58 58 57 57 57 56 56 56
46 46 45 45 45 45 45 46 47 46 46 45 45 46 46 44 43 45 46 46 46 46 46 47 47 48 48 49 49 49 49 48 46 46 46 44 44 46 49 51 51 51 51 53 55 54 51 49 50 50 49 49 48 48 49 49 48 48 48 48 48 48 48 48 49 49 49 50 50 51 51 52 53 54 54 55 55 56 56 57 57 57 57 56 56 56
44 43 43 43 43 44 44 45 46 46 46 46 45 44 44 42 40 41 42 43 45 46 46 46 46 47 48 48 48 48 48 45 43 42 42 40 43 46 47 48 50 51 52 54 54 53 52 51 51 50 50 50 50 50 50 50 50 50 49 49 49 49 49 50 50 50 50 50 51 51 51 52 53 53 54 54 54 54 54 55 55 56 56 56 56 56
38 38 39 40 42 43 43 44 45 46 46 46 45 44 44 42 40 39 40 42 44 46 45 45 45 46 47 47 46 46 45 43 41 41 41 41 45 48 46 44 47 49 50 51 51 51 51 50 50 51 51 51 51 51 51 51 51 51 51 51 50 50 50 50 51 51 51 52 52 51 51 52 52 53 53 54 54 55 55 55 55 55 55 55 55 55
37 36 37 40 41 42 42 43 44 44 46 46 45 44 44 43 41 40 40 43 46 46 45 45 46 46 46 46 45 45 43 40 39 40 41 42 46 48 45 44 46 47 47 48 49 50 49 49 49 49 50 50 50 51 51 52 52 51 51 51 51 50 50 50 50 51 51 52 52 52 52 51 51 51 52 52 53 53 54 54 54 54 54 55 55 55
40 39 39 40 42 42 42 42 43 43 46 48 47 46 45 43 41 42 43 45 46 46 44 45 46 47 46 44 44 43 42 41 41 42 42 43 46 47 46 46 46 46 47 49 49 48 47 47 48 49 49 50 50 51 51 51 51 51 51 50 50 50 50 49 49 50 50 51 51 51 52 51 51 51 51 51 52 52 52 53 53 53 54 54 54 54
40 40 40 40 40 40 40 41 42 43 46 47 47 46 45 42 42 44 45 44 43 43 43 44 46 47 46 45 44 44 44 43 43 43 42 42 44 46 47 47 47 48 49 49 49 49 48 48 49 49 50 51 51 51 52 51 51 51 50 50 50 49 49 49 48 48 49 49 50 50 51 51 50 50 50 50 51 51 51 52 52 53 54 54 53 53
38 37 37 36 36 39 40 41 43 44 44 45 45 44 43 44 45 46 45 44 44 44 45 45 46 46 47 47 48 48 48 47 46 46 45 44 44 45 47 49 50 50 50 50 49 50 50 49 50 50 51 51 51 52 52 51 51 51 51 50 50 50 49 49 48 47 47 47 47 48 48 48 48 48 48 48 49 50 50 50 51 52 53 52 52 53
37 36 34 33 35 38 40 40 42 43 42 41 42 42 43 46 48 47 45 44 44 44 46 47 46 46 47 47 48 49 49 48 48 48 48 47 47 47 47 49 50 50 50 50 50 50 50 50 50 51 51 52 52 52 52 52 52 52 51 51 50 50 50 48 48 47 46 46 46 45 46 46 47 47 47 47 48 49 49 49 50 51 51 50 50 51
34 35 36 36 36 38 37 37 38 39 39 38 39 41 43 45 47 45 44 44 44 44 46 46 46 46 46 46 47 48 48 48 48 48 48 48 48 47 47 49 50 50 51 51 51 51 52 51 51 52 52 52 53 53 53 53 53 52 51 51 51 50 50 49 48 48 47 47 47 47 47 47 48 48 48 48 48 48 49 49 49 48 49 49 50 51
31 33 35 36 35 35 37 38 38 38 38 38 38 40 42 43 44 43 44 45 45 46 45 45 46 46 46 47 47 48 48 48 48 49 49 50 49 49 49 50 50 51 52 52 53 53 53 53 53 53 53 53 53 53 53 53 53 52 51 51 51 50 50 49 49 47 47 46 46 47 47 47 48 48 48 48 48 47 48 48 47 47 49 50 51 50
32 33 34 34 33 34 35 36 38 38 38 38 39 41 42 42 43 45 46 46 47 47 47 47 47 48 48 49 49 50 50 50 50 50 50 51 52 51 51 51 51 52 53 53 54 54 54 53 53 54 54 54 54 54 54 54 53 52 52 51 51 50 50 49 48 47 46 45 46 47 47 47 48 48 48 48 48 47 48 48 48 49 50 51 51 51
32 34 33 32 33 34 34 35 37 39 39 40 40 41 42 42 44 45 46 47 47 47 47 48 48 49 49 50 50 51 51 51 52 52 52 53 54 54 53 53 53 53 53 54 54 55 54 54 55 56 56 55 55 55 56 55 54 53 53 53 52 51 50 50 49 48 47 47 47 47 47 47 48 48 48 48 48 48 48 49 49 49 50 51 51 51
33 34 33 33 34 35 35 36 38 39 39 41 41 42 43 43 44 45 46 47 47 48 48 48 49 49 49 50 51 52 52 52 53 54 54 54 55 55 55 55 55 55 56 56 56 56 56 55 56 56 56 56 56 56 56 55 55 54 54 54 53 52 51 50 50 49 48 47 47 46 47 47 47 47 48 49 48 48 49 49 49 49 49 49 49 48
33 33 34 35 36 36 36 38 39 40 40 40 40 41 43 44 44 45 45 45 45 46 46 46 47 48 48 49 51 52 52 52 53 54 54 54 55 56 56 57 57 58 59 59 59 58 58 57 57 57 57 56 57 57 56 56 56 55 54 54 52 52 51 51 50 50 49 48 47 47 48 48 47 48 49 49 48 48 48 48 48 47 46 45 44 43
33 33 35 36 37 37 37 38 39 39 39 38 38 39 40 41 41 41 41 41 41 41 41 41 42 43 44 45 47 48 50 50 50 51 52 53 54 55 56 57 58 58 59 60 60 59 59 59 59 59 58 58 58 58 57 57 56 55 54 53 52 52 51 50 50 50 49 48 48 48 48 47 47 47 47 46 45 45 44 43 42 41 38 36 35 34
Wind_Direction
241 238 231 227 227 231 229 219 223 227 227 245 243 217 208 218 214 218 248 253 256 250 224 224 234 215 222 239 244 256 255 245 245 244 242 244 248 249 249 249 254 259 258 258 263 265 264 267 273 273 273 276 276 276 276 275 276 278 279 279 280 279 279 278 278 276 273 271 271 270 270 270 270 267 263 258 255 254 255 257 259 261 263 266 267 268
242 238 236 234 235 233 229 226 226 229 235 242 238 221 213 215 210 219 246 260 258 250 229 227 251 236 228 238 248 260 263 251 249 250 245 244 247 248 249 248 250 256 259 261 264 266 267 268 270 271 271 272 274 274 275 276 278 280 280 280 280 280 280 280 279 277 274 271 271 271 270 270 271 270 267 264 262 261 261 262 264 266 268 269 269 268
249 252 251 245 238 235 231 230 230 226 229 232 229 223 218 214 219 233 244 256 261 251 230 232 259 252 236 242 255 259 258 252 251 252 248 245 246 248 250 249 249 254 258 261 264 267 268 271 272 271 272 272 273 273 274 276 279 280 280 280 280 281 282 282 281 279 276 272 272 272 271 270 269 269 268 267 265 264 264 265 266 268 269 269 268 267
249 257 260 250 237 239 237 235 236 233 231 227 225 226 218 212 226 244 249 251 253 246 235 240 253 256 249 252 261 260 254 253 252 252 251 247 246 249 249 249 250 254 257 260 265 269 269 272 275 274 275 273 271 272 274 276 277 278 279 279 280 282 283 284 283 280 277 275 274 274 273 271 269 268 267 266 265 264 264 264 265 266 267 267 266 266
243 248 257 258 243 242 242 239 238 235 236 233 228 227 222 222 230 233 242 248 249 245 241 247 255 260 265 266 266 264 255 251 250 252 253 251 249 250 250 251 252 254 257 260 262 264 267 273 274 273 274 272 272 273 274 274 275 277 279 280 281 282 284 286 286 282 279 277 275 275 274 272 270 269 267 266 264 263 263 263 263 264 264 264 264 264
251 254 257 258 250 247 245 243 241 237 240 242 239 234 229 235 241 234 242 251 253 257 252 249 255 260 265 262 257 258 258 253 248 250 253 255 254 254 255 256 255 255 258 261 262 262 267 271 271 272 274 276 276 274 271 272 274 276 279 281 282 283 286 289 289 284 279 277 276 274 273 272 271 270 268 266 264 263 262 261 261 261 261 261 262 263
254 260 258 254 250 247 247 246 246 241 241 246 245 240 234 238 247 247 250 254 254 259 259 254 254 254 250 252 252 254 259 260 256 253 252 254 256 256 257 256 256 257 259 261 263 263 263 266 268 270 272 274 274 271 269 270 273 276 278 281 283 285 288 291 290 285 281 278 276 274 272 270 269 269 268 267 265 263 261 260 260 259 259 259 259 261
254 260 258 256 249 244 245 245 247 241 237 243 244 242 240 240 248 253 253 256 256 254 257 258 258 255 247 251 260 258 258 262 263 261 257 254 253 253 253 254 255 257 259 261 264 262 258 257 261 263 263 265 266 267 269 271 273 275 277 280 283 287 290 291 290 286 283 281 276 272 270 267 267 266 266 265 265 264 262 261 259 259 258 258 259 261
255 259 257 255 250 245 242 240 245 241 233 241 245 246 247 246 250 257 255 255 257 255 258 261 259 256 253 252 259 262 261 260 261 264 262 257 254 253 252 253 255 255 256 258 260 261 259 254 254 255 256 258 260 262 266 270 271 273 276 279 282 286 289 291 290 286 283 282 276 271 268 266 266 264 263 262 262 263 262 262 261 260 261 261 262 263
258 261 258 253 247 240 234 239 246 242 235 242 250 249 250 252 254 259 258 257 257 255 258 262 260 258 256 252 255 262 262 255 252 255 257 257 257 257 256 255 254 253 253 255 256 258 258 255 252 251 252 253 255 257 260 264 268 272 274 277 280 283 287 290 287 282 280 280 276 273 269 267 266 264 263 262 261 261 261 262 263 263 264 265 265 265
259 260 258 252 245 239 239 247 250 243 239 244 250 250 252 256 256 256 258 257 256 258 261 262 259 259 261 258 257 260 259 251 248 249 253 259 259 258 259 258 256 254 254 254 254 255 255 255 254 252 251 250 251 252 255 260 265 269 271 274 277 281 285 286 281 278 278 278 277 275 272 269 268 266 265 264 263 263 262 262 263 264 265 265 266 266
260 261 260 255 249 246 247 250 249 243 240 242 246 250 253 254 255 258 259 254 255 261 263 261 259 259 260 257 248 251 255 255 255 255 256 261 262 260 259 258 256 256 255 253 253 252 252 252 252 252 252 251 250 251 253 257 260 263 267 270 273 278 282 279 274 274 278 279 280 280 276 273 272 271 270 269 267 265 264 263 263 263 264 264 265 266
264 266 262 257 252 251 252 252 249 244 241 241 243 245 249 250 253 256 254 252 258 263 258 254 258 260 259 253 249 252 257 259 259 259 259 260 260 260 258 256 256 255 254 253 252 251 251 250 249 249 250 250 250 250 251 252 254 257 261 265 270 275 276 271 271 274 277 279 282 282 280 275 273 273 272 271 270 268 266 264 263 263 262 262 262 263
262 262 251 250 252 251 250 246 243 242 237 236 238 238 241 244 246 249 251 254 261 264 258 250 252 260 260 256 257 259 259 259 260 261 262 263 262 260 258 256 255 252 251 251 250 250 249 248 247 247 247 248 248 248 249 249 250 252 255 260 266 269 267 266 271 274 274 275 277 278 277 273 271 270 270 270 270 268 266 264 262 261 261 260 260 260
243 244 241 244 251 249 241 236 239 246 240 230 231 236 238 240 242 246 250 248 241 247 256 257 258 263 261 258 261 262 258 258 260 262 264 266 266 264 260 256 253 251 249 247 246 246 247 246 246 247 247 248 248 247 247 248 249 250 251 256 261 261 260 263 268 270 271 272 271 271 270 269 268 267 267 267 267 265 264 262 261 260 260 260 260 260
230 233 243 244 248 250 246 243 244 251 254 243 235 240 244 244 245 248 250 250 246 246 254 263 269 271 267 267 270 270 268 267 266 265 265 264 264 262 260 259 256 252 248 244 242 242 243 243 243 244 245 246 246 245 245 246 246 246 247 251 253 253 255 259 263 266 269 268 266 266 266 266 266 265 264 263 264 264 263 262 262 262 262 263 263 263
219 217 238 246 252 253 249 251 250 244 249 253 245 242 243 244 249 253 256 258 259 259 261 267 273 275 274 275 274 270 271 272 268 266 263 260 260 259 260 259 257 253 248 244 241 238 238 238 238 238 239 240 241 241 242 241 240 240 241 244 247 250 253 256 260 265 267 266 263 262 263 265 264 262 260 259 259 260 261 262 262 262 263 264 265 265
226 226 243 257 259 253 248 255 260 249 243 251 254 249 247 249 252 256 258 259 261 264 266 268 271 272 272 273 273 270 269 268 267 264 260 257 256 256 256 257 256 254 251 247 243 238 236 237 236 234 234 235 237 237 236 236 236 237 240 243 247 251 253 256 260 264 264 264 263 263 264 264 260 256 254 253 254 255 256 259 261 262 263 263 263 265
238 240 250 258 259 257 258 261 266 266 257 251 254 254 255 257 258 260 263 264 265 267 268 268 269 271 270 267 269 271 265 262 263 261 258 257 256 254 253 254 255 255 254 251 248 243 239 239 239 237 236 237 238 237 235 234 234 236 240 244 248 251 253 256 260 261 260 261 262 264 264 263 258 253 249 248 250 253 255 257 259 261 262 263 263 264
247 249 252 255 257 258 264 267 271 274 266 255 253 255 257 260 261 265 266 266 267 268 269 269 267 267 263 254 263 272 267 259 260 262 261 259 257 255 252 252 252 252 253 252 250 247 242 239 240 241 242 242 242 242 241 241 241 242 242 245 249 251 251 254 256 257 257 258 260 261 260 259 257 253 250 248 249 253 256 256 258 259 260 263 264 264
253 254 254 258 262 264 267 265 263 263 262 261 263 264 264 263 261 260 259 261 265 267 270 272 271 267 258 252 262 272 269 265 264 265 264 261 257 254 251 251 250 249 249 249 249 247 243 239 239 243 247 248 246 244 241 242 243 243 243 243 245 248 249 249 250 251 254 255 255 256 256 256 257 255 252 251 251 253 256 257 257 257 258 259 262 263
254 255 255 257 263 268 266 260 258 262 267 268 267 268 268 266 263 262 262 263 263 264 266 268 269 268 262 259 262 263 264 269 270 265 262 261 257 252 250 251 251 249 247 246 246 245 243 242 240 244 250 254 254 250 244 242 244 245 244 242 243 245 245 245 246 248 250 252 252 252 254 255 256 256 255 254 255 255 258 260 258 257 256 255 255 256
257 260 261 260 261 263 262 263 265 268 269 267 265 266 267 265 264 266 266 265 263 262 263 264 265 267 266 264 263 260 262 267 267 263 262 263 262 257 253 252 251 251 249 246 245 244 243 242 241 243 248 253 258 259 254 250 251 253 252 250 250 251 248 248 250 250 248 249 250 250 251 254 256 256 256 256 256 256 258 260 260 260 259 255 250 249
260 264 265 264 264 264 264 268 270 270 269 267 266 266 266 263 262 261 262 263 263 262 264 266 266 267 268 268 266 263 260 261 262 264 264 265 266 264 260 256 253 252 250 248 246 245 243 242 240 240 243 247 252 257 258 257 255 255 254 253 255 255 253 252 257 260 253 246 245 249 250 251 253 256 257 258 258 258 256 255 256 259 262 260 256 251
262 265 265 266 269 270 271 272 273 273 271 268 266 266 265 262 261 261 261 262 262 262 262 262 263 265 268 269 268 264 259 259 263 265 265 264 265 264 262 262 260 256 253 250 248 246 245 245 242 240 240 242 246 251 256 257 256 256 256 255 254 254 254 253 258 264 257 244 242 250 249 245 248 256 260 260 260 259 256 253 254 257 261 264 263 261
262 264 267 269 270 271 273 271 267 267 267 268 268 268 268 267 267 266 262 260 260 260 258 257 257 259 262 265 267 266 264 263 263 264 265 265 264 264 265 267 266 262 257 254 252 250 248 247 247 245 243 242 244 248 252 254 254 254 255 257 257 256 256 256 256 261 258 248 249 258 254 247 252 263 265 260 257 256 253 253 257 260 261 262 263 263
264 264 265 268 269 270 269 265 262 263 264 266 267 267 267 269 269 267 262 260 260 259 257 256 256 257 259 262 265 264 263 264 264 263 264 264 264 265 266 266 265 263 258 255 254 252 251 250 249 249 249 248 248 249 251 253 253 252 252 254 256 256 258 259 258 258 257 255 258 264 263 259 260 265 264 255 251 253 253 255 260 264 264 264 262 262
266 266 266 267 268 268 267 264 264 265 265 265 266 265 263 264 264 262 261 261 261 259 258 257 256 257 258 260 262 262 262 263 265 266 266 265 265 266 266 265 264 263 261 259 257 256 254 253 252 252 252 253 252 252 253 253 253 253 253 252 253 255 256 259 259 259 258 258 259 262 266 266 263 263 261 253 251 255 257 258 262 264 263 261 260 259
265 266 267 267 266 266 265 265 264 264 264 264 265 265 264 263 263 263 263 263 261 259 260 257 253 254 255 256 259 263 262 261 261 264 267 267 266 267 267 266 264 263 262 262 260 258 257 256 255 254 254 255 255 255 255 255 255 256 255 254 253 253 255 257 258 258 258 257 256 256 259 260 260 259 258 253 252 255 257 258 261 261 258 257 260 263
264 264 264 264 264 264 264 264 264 265 266 266 266 267 267 266 265 265 266 266 262 260 260 258 255 252 251 252 255 258 261 261 261 263 265 264 265 265 265 265 264 263 263 262 260 259 259 258 257 257 257 257 258 258 257 258 258 258 257 256 255 254 254 255 257 259 260 260 258 255 255 255 256 256 256 254 252 253 254 255 257 258 259 260 264 267
262 262 263 264 264 264 264 264 265 266 267 266 265 266 267 268 267 266 267 267 266 264 261 259 257 254 251 252 253 254 256 259 260 261 262 262 263 263 261 261 262 262 261 260 260 259 258 257 258 259 260 259 259 258 259 259 260 260 259 259 258 257 256 255 255 257 260 263 262 260 259 258 257 256 256 255 254 253 253 253 254 256 258 261 263 266
262 262 264 265 265 265 267 268 269 268 266 265 265 265 267 269 269 269 267 266 266 265 262 259 258 257 256 255 254 254 255 257 258 260 260 262 262 261 260 260 260 261 259 258 258 259 259 259 259 260 260 261 261 260 260 260 261 260 260 259 259 259 258 256 254 252 253 256 258 260 261 261 259 259 258 258 257 257 257 257 257 257 259 261 263 263
264 265 267 268 268 268 270 271 271 270 269 268 270 271 270 269 268 267 266 264 263 263 262 260 259 258 258 257 256 255 257 258 258 257 256 257 257 257 258 259 259 259 259 258 258 259 261 263 263 262 264 264 263 262 262 261 261 260 260 259 258 258 257 257 256 254 252 253 254 256 258 259 260 260 261 262 263 263 263 264 265 265 265 266 267 267
267 268 269 270 271 272 272 271 269 269 270 272 273 272 270 268 267 266 266 265 264 262 262 263 262 260 258 258 258 258 257 257 257 256 254 255 255 256 256 257 258 259 259 259 259 260 261 264 266 268 269 267 265 263 262 260 260 259 259 258 258 257 257 256 257 256 256 255 255 256 257 257 258 259 260 262 264 265 265 266 267 268 268 269 269 269
267 268 269 269 270 272 272 271 269 269 271 274 273 271 268 267 268 268 268 267 266 265 264 263 263 262 260 259 259 259 259 258 257 257 256 255 255 256 257 257 257 257 257 259 261 263 264 266 267 268 268 266 265 264 262 261 260 259 258 257 257 257 256 256 256 256 257 257 257 258 258 258 258 259 260 261 263 264 265 265 266 267 267 268 268 269
266 268 268 268 268 269 270 270 270 271 272 272 271 270 270 270 271 271 270 268 267 267 265 264 263 263 263 262 261 261 261 260 259 258 257 256 257 257 256 255 254 254 256 259 262 264 266 266 266 266 267 266 265 264 263 263 262 261 260 259 258 257 257 256 256 256 257 257 258 259 259 260 260 260 261 262 263 264 264 265 265 266 266 267 267 268
266 267 268 268 268 268 269 269 270 272 272 271 271 272 273 274 274 272 271 270 269 268 267 266 265 265 264 264 263 263 263 262 261 260 258 256 255 254 253 252 253 254 256 259 262 264 266 266 266 267 267 266 265 265 264 263 263 262 262 261 260 260 259 258 258 258 258 258 258 258 259 260 261 262 262 263 263 264 264 265 265 266 266 267 267 267
268 268 269 269 269 268 269 270 271 272 272 273 273 273 274 274 273 272 273 272 271 270 269 268 267 266 265 264 264 264 264 263 261 259 258 255 252 251 251 251 252 254 256 258 261 263 264 265 265 266 265 265 264 264 264 264 264 263 263 262 262 262 261 261 261 261 261 260 260 259 259 259 260 261 262 263 263 264 264 265 265 265 266 266 267 267
268 269 268 268 268 269 269 270 271 272 272 272 272 272 273 273 272 272 271 270 270 270 270 269 268 267 266 266 266 265 264 262 259 258 258 256 254 253 252 251 252 255 257 258 260 261 262 263 264 265 265 265 265 265 265 265 265 264 264 264 263 263 263 263 263 263 263 263 263 262 262 261 261 261 261 261 262 263 263 264 265 265 266 266 266 266
267 267 268 268 269 270 270 271 272 272 271 271 271 271 272 272 271 270 268 268 270 270 269 269 268 268 267 268 267 266 263 260 256 254 254 255 256 256 254 253 254 256 258 258 259 261 263 264 265 265 265 265 265 265 264 264 264 264 264 264 264 263 263 263 263 263 264 264 264 264 264 263 263 262 262 262 262 262 262 263 264 264 264 265 265 266
271 270 269 269 270 270 270 271 270 269 269 270 271 271 271 270 270 269 267 268 270 270 268 267 267 267 267 266 265 264 262 258 255 254 254 255 256 258 258 257 256 257 258 259 261 263 263 263 263 264 264 264 264 264 264 263 264 264 264 263 263 263 263 263 262 263 263 263 264 264 264 264 264 263 263 262 262 262 262 262 262 262 263 263 264 264
275 274 272 271 270 268 267 267 267 266 267 270 272 271 271 270 268 267 267 268 269 268 267 266 266 266 265 263 261 260 258 257 256 255 255 254 255 256 258 258 258 257 258 260 261 262 262 262 262 262 262 263 263 264 264 264 264 264 264 264 264 264 263 263 262 262 262 262 263 263 263 263 264 264 264 263 262 261 261 261 261 261 261 262 262 263
271 271 272 273 271 268 266 266 265 266 268 272 272 272 271 269 267 266 267 268 269 269 268 267 265 265 264 263 261 259 258 257 256 256 255 255 254 254 255 257 258 259 260 261 261 261 262 262 262 262 262 263 263 264 264 264 264 264 264 264 264 264 263 263 262 262 262 262 261 261 261 261 262 262 262 262 262 262 261 260 260 260 260 261 262 262
269 268 267 265 265 266 268 269 269 269 271 272 270 269 269 268 268 269 270 270 270 270 269 268 266 265 265 265 264 264 263 261 259 259 259 259 258 257 257 258 260 260 261 261 261 261 262 262 262 262 262 262 263 263 263 264 264 264 264 264 264 264 264 263 262 262 261 261 261 261 260 261 261 261 261 261 261 262 261 260 259 259 260 261 261 262
267 266 264 263 263 266 268 269 269 270 271 270 269 269 269 269 271 272 272 271 270 268 268 269 269 268 267 267 267 266 265 264 263 263 262 261 261 260 259 259 260 261 262 262 261 261 261 261 261 261 261 262 262 262 263 263 264 264 264 264 264 264 264 263 262 262 261 260 261 261 262 262 262 262 262 261 261 261 261 260 259 259 260 259 259 261
267 266 266 266 266 267 268 268 268 269 269 269 270 270 270 271 273 273 272 271 270 269 269 269 269 269 269 268 268 267 266 265 264 264 264 263 262 261 260 259 259 260 260 261 261 262 262 262 263 262 262 262 262 263 263 263 263 264 264 264 264 263 263 263 262 262 262 262 262 262 262 262 262 262 262 262 262 261 261 261 261 261 260 260 260 262
271 269 269 269 269 268 269 270 270 271 270 269 268 269 270 271 271 271 271 271 271 271 272 271 271 271 271 270 270 270 270 269 268 267 267 266 266 264 263 262 261 260 260 260 260 261 261 262 262 262 262 262 262 263 263 263 263 263 263 264 264 264 264 264 264 263 263 263 263 263 263 263 263 263 263 264 264 263 263 263 262 262 261 262 262 263
272 273 274 274 273 271 271 270 270 271 271 271 270 270 270 270 270 270 271 272 272 272 272 272 272 272 272 272 272 271 271 271 270 269 269 268 268 267 267 266 265 264 263 262 261 261 260 260 260 259 260 260 260 260 261 261 262 262 263 263 263 264 264 264 264 264 264 263 263 263 263 263 263 263 264 264 264 264 263 263 263 262 262 262 263 263
275 277 278 276 274 274 274 273 272 272 272 273 273 272 271 270 271 271 271 272 272 273 273 273 273 273 272 272 271 271 270 269 269 269 268 268 268 268 268 267 267 266 265 264 263 262 262 261 260 260 260 260 260 260 260 261 261 261 261 262 262 263 264 265 265 265 265 264 264 264 265 265 264 265 265 264 264 264 264 264 264 263 262 262 263 263
277 279 279 278 277 277 276 275 275 275 274 274 273 272 272 272 273 273 273 273 273 274 274 274 274 274 273 273 272 271 271 270 269 269 268 268 267 267 267 266 266 265 265 264 264 264 264 263 263 262 262 262 262 262 262 261 261 261 261 261 262 262 263 264 265 265 265 266 266 266 266 266 267 267 266 266 266 266 266 265 265 264 263 262 262 262
280 280 280 280 279 279 278 277 277 277 276 275 274 274 274 275 275 275 275 275 275 275 274 274 273 273 273 273 274 274 273 272 272 271 270 269 268 267 266 265 264 264 264 264 265 265 264 264 263 263 262 261 261 261 261 261 262 262 262 262 261 261 261 261 262 263 264 265 265 265 265 266 266 266 267 267 267 266 264 263 262 261 259 258 257 256
Height
5740 5741 5741 5741 5742 5743 5743 5744 5745 5746 5746 5748 5748 5749 5753 5754 5755 5756 5750 5746 5748 5750 5752 5754 5755 5756 5756 5756 5753 5751 5752 5753 5754 5755 5756 5757 5758 5758 5759 5760 5757 5754 5756 5758 5758 5758 5758 5756 5757 5759 5761 5761 5761 5761 5761 5760 5761 5761 5762 5762 5763 5764 5764 5764 5764 5764 5764 5764 5763 5764 5764 5764 5764 5765 5766 5766 5767 5768 5768 5769 5769 5770 5771 5772 5772 5772
5739 5739 5739 5739 5741 5742 5742 5742 5744 5745 5745 5745 5746 5747 5750 5752 5754 5754 5749 5745 5747 5748 5750 5752 5752 5751 5752 5752 5750 5750 5751 5751 5751 5752 5754 5755 5755 5756 5756 5757 5756 5753 5752 5755 5755 5755 5754 5754 5755 5758 5759 5759 5759 5759 5758 5758 5758 5759 5759 5760 5761 5761 5761 5761 5761 5761 5761 5762 5762 5762 5762 5762 5762 5762 5763 5764 5764 5765 5765 5766 5766 5767 5768 5768 5769 5770
5738 5738 5737 5738 5740 5740 5740 5741 5742 5743 5743 5744 5744 5745 5747 5750 5751 5749 5746 5745 5746 5746 5748 5749 5749 5748 5749 5749 5747 5748 5750 5749 5749 5750 5751 5752 5752 5753 5753 5754 5754 5752 5750 5751 5753 5752 5751 5751 5753 5756 5757 5757 5757 5757 5757 5756 5757 5756 5756 5757 5758 5758 5758 5759 5759 5758 5758 5759 5760 5759 5759 5760 5760 5760 5760 5761 5761 5762 5763 5763 5764 5764 5765 5765 5766 5766
5737 5735 5734 5736 5738 5738 5739 5740 5740 5741 5742 5742 5743 5744 5745 5747 5749 5747 5744 5743 5744 5745 5746 5746 5747 5746 5747 5747 5746 5746 5747 5747 5747 5748 5748 5749 5750 5750 5751 5751 5752 5751 5750 5750 5751 5750 5749 5750 5752 5753 5754 5755 5755 5755 5755 5754 5755 5754 5753 5753 5755 5756 5756 5756 5756 5756 5756 5756 5757 5757 5757 5757 5757 5757 5758 5758 5758 5759 5760 5760 5761 5762 5762 5763 5763 5763
5734 5731 5732 5735 5736 5736 5737 5738 5738 5739 5740 5740 5741 5742 5743 5744 5745 5744 5741 5740 5742 5743 5743 5744 5744 5745 5745 5745 5744 5743 5743 5744 5745 5745 5746 5746 5747 5748 5748 5749 5749 5749 5749 5749 5750 5750 5749 5749 5750 5751 5751 5752 5753 5753 5753 5752 5752 5752 5751 5750 5752 5753 5754 5754 5754 5754 5753 5754 5754 5755 5755 5755 5755 5755 5755 5755 5756 5756 5757 5757 5758 5759 5759 5760 5760 5760
5730 5729 5731 5733 5734 5735 5735 5736 5736 5737 5738 5738 5739 5739 5740 5740 5740 5740 5739 5739 5741 5742 5741 5742 5742 5743 5744 5743 5742 5741 5740 5741 5743 5744 5744 5744 5745 5745 5746 5747 5747 5747 5747 5746 5747 5748 5748 5748 5749 5749 5749 5750 5750 5751 5751 5750 5750 5749 5749 5748 5749 5751 5752 5752 5752 5751 5751 5751 5752 5752 5752 5752 5752 5752 5752 5753 5753 5753 5754 5754 5755 5755 5756 5757 5757 5757
5727 5728 5730 5731 5732 5733 5733 5733 5734 5735 5736 5736 5736 5737 5737 5737 5736 5737 5738 5738 5740 5741 5739 5739 5740 5741 5741 5740 5739 5738 5737 5739 5740 5741 5742 5741 5742 5743 5743 5744 5744 5744 5744 5744 5744 5745 5746 5746 5747 5748 5748 5748 5748 5748 5748 5748 5748 5747 5747 5746 5746 5748 5749 5750 5750 5749 5748 5749 5749 5749 5750 5750 5750 5750 5750 5750 5750 5751 5751 5751 5752 5752 5753 5754 5754 5754
5724 5726 5728 5728 5730 5730 5730 5731 5731 5732 5733 5733 5733 5733 5734 5735 5734 5735 5737 5736 5738 5738 5736 5737 5738 5738 5739 5738 5736 5735 5736 5737 5737 5737 5738 5739 5739 5740 5740 5741 5741 5742 5742 5742 5742 5742 5743 5744 5746 5746 5746 5746 5746 5745 5744 5745 5745 5745 5744 5744 5743 5744 5746 5747 5747 5747 5746 5747 5747 5747 5747 5747 5747 5747 5747 5748 5748 5748 5748 5749 5749 5749 5750 5751 5751 5752
5722 5724 5725 5726 5727 5728 5729 5728 5728 5729 5730 5729 5729 5731 5732 5732 5732 5733 5734 5734 5735 5734 5733 5735 5736 5735 5736 5737 5734 5732 5734 5736 5735 5734 5734 5735 5736 5736 5737 5738 5739 5740 5740 5740 5741 5740 5741 5742 5744 5744 5743 5744 5744 5743 5742 5742 5742 5742 5741 5741 5741 5742 5743 5744 5744 5744 5744 5744 5744 5744 5744 5744 5745 5745 5745 5745 5746 5746 5746 5746 5747 5747 5748 5748 5749 5749
5720 5722 5723 5724 5725 5725 5726 5725 5725 5727 5727 5727 5727 5729 5729 5730 5730 5731 5731 5732 5731 5730 5731 5732 5732 5731 5732 5734 5733 5730 5731 5733 5732 5731 5730 5730 5732 5733 5734 5735 5736 5737 5737 5738 5739 5738 5739 5739 5741 5741 5741 5741 5742 5741 5741 5740 5740 5739 5739 5739 5739 5739 5741 5742 5741 5741 5741 5741 5741 5741 5742 5742 5742 5743 5743 5743 5744 5744 5744 5744 5745 5745 5745 5746 5746 5747
5718 5719 5720 5721 5722 5722 5722 5722 5723 5725 5725 5725 5726 5726 5727 5727 5728 5728 5728 5729 5728 5727 5729 5730 5729 5729 5730 5732 5732 5728 5727 5729 5728 5728 5727 5727 5728 5730 5731 5732 5732 5733 5735 5735 5736 5736 5736 5736 5737 5737 5738 5739 5739 5739 5739 5739 5738 5737 5736 5737 5736 5737 5739 5739 5738 5738 5739 5739 5739 5739 5739 5739 5740 5740 5741 5741 5742 5742 5742 5742 5743 5743 5743 5743 5744 5744
5716 5716 5717 5718 5719 5719 5719 5720 5721 5722 5723 5723 5724 5725 5725 5725 5724 5725 5725 5725 5725 5725 5727 5727 5726 5726 5727 5729 5728 5724 5723 5725 5725 5725 5725 5725 5725 5726 5727 5728 5728 5730 5731 5731 5732 5732 5733 5733 5733 5734 5734 5735 5736 5736 5737 5737 5736 5735 5734 5734 5734 5735 5736 5736 5736 5736 5737 5736 5736 5737 5737 5737 5738 5738 5739 5739 5740 5740 5740 5740 5740 5740 5741 5741 5741 5741
5714 5714 5714 5715 5716 5717 5717 5718 5718 5719 5720 5721 5722 5722 5722 5722 5722 5722 5723 5722 5723 5723 5723 5723 5723 5723 5724 5725 5722 5721 5722 5722 5722 5722 5722 5722 5722 5723 5724 5724 5725 5726 5726 5727 5727 5728 5729 5729 5730 5730 5730 5731 5732 5733 5733 5733 5733 5732 5732 5731 5732 5733 5734 5734 5734 5734 5735 5734 5734 5735 5735 5735 5736 5736 5737 5737 5738 5738 5738 5738 5738 5738 5738 5738 5738 5739
5714 5714 5713 5713 5713 5714 5715 5716 5716 5716 5717 5718 5719 5719 5719 5719 5719 5720 5720 5720 5722 5721 5720 5720 5720 5720 5722 5721 5718 5719 5720 5719 5719 5719 5718 5719 5719 5719 5720 5721 5721 5721 5722 5722 5723 5723 5724 5724 5725 5726 5726 5726 5728 5729 5729 5729 5730 5729 5729 5729 5730 5731 5731 5731 5732 5732 5732 5733 5733 5733 5733 5734 5734 5734 5734 5735 5735 5735 5735 5735 5735 5735 5735 5735 5736 5736
5713 5714 5713 5711 5712 5712 5713 5714 5714 5714 5714 5715 5716 5716 5716 5717 5717 5718 5718 5718 5719 5719 5717 5717 5717 5718 5719 5717 5716 5717 5717 5717 5717 5717 5716 5716 5716 5716 5717 5717 5718 5718 5718 5718 5718 5719 5719 5720 5721 5721 5722 5723 5724 5725 5725 5725 5726 5726 5727 5727 5728 5728 5728 5729 5729 5730 5730 5731 5731 5732 5732 5732 5732 5732 5732 5732 5733 5733 5733 5733 5732 5733 5733 5733 5733 5734
5712 5713 5711 5709 5710 5711 5711 5712 5712 5712 5712 5713 5714 5714 5714 5715 5715 5715 5715 5715 5716 5716 5715 5714 5715 5716 5715 5714 5714 5714 5714 5715 5715 5714 5714 5714 5713 5714 5713 5713 5714 5714 5715 5715 5715 5716 5716 5717 5718 5718 5719 5719 5720 5721 5721 5722 5722 5723 5724 5724 5725 5725 5725 5726 5727 5727 5728 5729 5729 5730 5730 5730 5730 5730 5730 5730 5730 5730 5730 5730 5730 5731 5731 5731 5731 5732
5709 5710 5708 5707 5709 5709 5710 5711 5711 5711 5712 5711 5712 5712 5712 5712 5712 5712 5712 5713 5713 5713 5713 5713 5713 5713 5711 5710 5710 5710 5711 5711 5711 5711 5711 5711 5711 5711 5710 5711 5711 5711 5712 5712 5713 5713 5714 5714 5715 5716 5716 5717 5717 5717 5718 5719 5719 5720 5721 5722 5722 5722 5723 5724 5724 5724 5725 5726 5727 5728 5728 5728 5728 5728 5728 5728 5728 5728 5728 5728 5728 5729 5729 5729 5729 5730
5706 5707 5706 5706 5707 5707 5708 5709 5709 5710 5710 5710 5710 5710 5710 5710 5710 5710 5710 5710 5710 5710 5710 5711 5711 5710 5709 5708 5706 5707 5708 5707 5707 5708 5707 5708 5708 5708 5708 5708 5708 5708 5709 5709 5710 5711 5711 5711 5712 5713 5714 5714 5714 5715 5716 5716 5717 5718 5719 5719 5720 5720 5721 5721 5721 5721 5722 5723 5724 5725 5725 5725 5726 5726 5726 5726 5726 5726 5726 5726 5727 5727 5727 5727 5727 5727
5704 5704 5704 5705 5705 5705 5706 5706 5706 5707 5707 5708 5708 5707 5707 5708 5708 5708 5708 5708 5708 5708 5708 5708 5708 5708 5708 5707 5703 5704 5705 5704 5704 5704 5704 5705 5705 5705 5705 5706 5706 5706 5706 5707 5707 5708 5708 5708 5709 5710 5711 5711 5711 5712 5713 5713 5714 5715 5716 5716 5717 5717 5718 5718 5718 5719 5719 5720 5720 5721 5721 5722 5723 5723 5724 5724 5724 5724 5724 5724 5724 5725 5725 5725 5725 5725
5702 5702 5702 5703 5702 5703 5704 5704 5704 5705 5704 5705 5705 5705 5706 5706 5706 5706 5706 5705 5705 5705 5705 5705 5705 5705 5706 5704 5701 5701 5702 5701 5701 5701 5701 5702 5702 5702 5703 5703 5704 5704 5704 5704 5704 5705 5705 5706 5706 5707 5707 5708 5708 5708 5709 5710 5711 5711 5712 5713 5713 5713 5714 5715 5716 5716 5716 5716 5717 5718 5718 5719 5719 5721 5721 5722 5722 5722 5721 5722 5722 5722 5723 5723 5723 5724
5699 5699 5700 5700 5699 5700 5702 5701 5701 5702 5702 5702 5702 5703 5704 5703 5703 5703 5703 5703 5703 5702 5702 5701 5702 5702 5702 5700 5699 5699 5698 5698 5699 5698 5698 5699 5699 5700 5700 5701 5701 5701 5702 5702 5702 5702 5703 5703 5703 5703 5704 5704 5704 5704 5705 5706 5706 5707 5708 5708 5709 5709 5710 5711 5712 5712 5712 5713 5713 5714 5715 5715 5716 5717 5718 5719 5720 5720 5719 5719 5720 5720 5720 5721 5722 5722
5695 5696 5697 5698 5697 5697 5698 5697 5698 5699 5700 5700 5700 5700 5701 5700 5700 5699 5700 5701 5700 5699 5699 5698 5698 5698 5697 5696 5697 5697 5696 5694 5695 5695 5695 5695 5696 5697 5698 5698 5698 5699 5699 5699 5699 5699 5700 5700 5701 5700 5700 5700 5701 5701 5702 5703 5703 5704 5704 5704 5705 5706 5706 5708 5708 5709 5709 5710 5709 5710 5711 5712 5713 5714 5715 5716 5716 5716 5716 5717 5718 5717 5717 5718 5719 5719
5692 5692 5693 5694 5694 5695 5695 5694 5694 5696 5697 5697 5697 5697 5698 5697 5697 5696 5696 5697 5696 5696 5696 5695 5694 5693 5692 5693 5694 5694 5693 5692 5691 5691 5691 5692 5693 5694 5695 5695 5695 5696 5696 5696 5697 5697 5697 5697 5698 5698 5697 5697 5697 5698 5699 5700 5701 5701 5702 5702 5703 5703 5703 5704 5705 5706 5707 5706 5706 5707 5707 5708 5709 5710 5711 5712 5712 5712 5713 5714 5715 5715 5715 5715 5715 5716
5689 5688 5688 5689 5690 5691 5692 5691 5691 5692 5693 5693 5693 5694 5694 5694 5694 5693 5693 5692 5691 5692 5693 5691 5691 5690 5688 5688 5689 5689 5689 5689 5688 5687 5687 5688 5688 5689 5690 5691 5691 5692 5692 5693 5693 5693 5694 5694 5694 5695 5695 5695 5695 5695 5695 5696 5697 5698 5699 5699 5700 5700 5700 5701 5702 5702 5703 5702 5702 5702 5703 5704 5706 5707 5708 5708 5708 5708 5708 5709 5710 5711 5712 5712 5712 5713
5684 5684 5683 5685 5685 5687 5688 5688 5688 5687 5687 5687 5687 5689 5688 5689 5689 5689 5689 5688 5687 5689 5690 5687 5687 5687 5684 5683 5683 5684 5685 5685 5684 5683 5683 5684 5684 5684 5685 5686 5686 5687 5688 5688 5689 5689 5690 5690 5691 5691 5692 5692 5692 5692 5692 5693 5693 5694 5694 5695 5695 5696 5697 5698 5698 5698 5698 5698 5699 5699 5700 5701 5702 5703 5704 5704 5705 5705 5705 5706 5706 5707 5708 5709 5709 5710
5679 5679 5679 5680 5681 5682 5684 5685 5684 5682 5681 5681 5682 5683 5683 5683 5684 5685 5684 5684 5684 5686 5686 5684 5684 5683 5680 5679 5679 5679 5680 5680 5680 5679 5679 5679 5680 5679 5680 5681 5681 5682 5682 5683 5684 5685 5685 5686 5686 5687 5687 5688 5688 5689 5689 5689 5689 5690 5690 5690 5691 5692 5693 5693 5694 5694 5694 5695 5696 5696 5697 5697 5698 5699 5700 5701 5701 5701 5702 5703 5703 5703 5703 5704 5705 5706
5674 5674 5675 5675 5676 5677 5679 5679 5678 5677 5677 5677 5677 5678 5679 5678 5679 5680 5679 5679 5679 5680 5679 5680 5680 5679 5677 5677 5675 5673 5674 5674 5674 5674 5674 5674 5674 5675 5675 5675 5676 5676 5676 5677 5678 5679 5680 5680 5681 5681 5682 5683 5683 5684 5685 5685 5685 5685 5686 5686 5686 5687 5687 5688 5689 5689 5690 5690 5691 5691 5692 5693 5694 5695 5695 5696 5697 5698 5698 5699 5699 5698 5698 5699 5700 5701
5668 5668 5670 5670 5670 5671 5672 5672 5673 5672 5672 5672 5671 5673 5674 5673 5674 5674 5673 5674 5675 5673 5673 5676 5676 5674 5674 5674 5670 5668 5669 5670 5669 5669 5669 5668 5668 5669 5669 5669 5669 5669 5670 5670 5671 5672 5673 5674 5675 5676 5677 5677 5677 5678 5679 5679 5680 5680 5681 5681 5682 5682 5682 5682 5682 5683 5685 5686 5686 5687 5688 5688 5688 5689 5691 5692 5692 5693 5694 5694 5694 5694 5694 5694 5695 5696
5663 5663 5664 5664 5664 5665 5665 5666 5666 5665 5665 5665 5665 5666 5667 5667 5667 5667 5667 5668 5669 5666 5667 5670 5669 5668 5669 5668 5666 5664 5664 5665 5665 5664 5664 5663 5663 5663 5663 5663 5663 5663 5663 5663 5664 5665 5666 5668 5669 5670 5671 5671 5672 5672 5673 5673 5674 5675 5675 5676 5676 5677 5677 5677 5677 5678 5679 5680 5682 5682 5683 5683 5683 5684 5685 5686 5687 5688 5688 5689 5690 5689 5689 5690 5691 5691
5657 5657 5658 5658 5657 5658 5659 5660 5659 5659 5658 5658 5658 5658 5659 5659 5660 5660 5659 5661 5661 5660 5661 5662 5661 5662 5663 5662 5662 5661 5660 5659 5659 5659 5659 5658 5658 5658 5658 5657 5656 5656 5657 5656 5657 5658 5659 5661 5663 5664 5665 5665 5666 5666 5667 5667 5668 5669 5670 5670 5671 5671 5672 5672 5672 5672 5673 5675 5676 5677 5677 5678 5678 5679 5680 5680 5681 5682 5682 5683 5684 5684 5684 5684 5685 5684
5650 5652 5652 5651 5650 5651 5653 5653 5653 5653 5652 5651 5652 5652 5652 5652 5652 5653 5653 5653 5654 5654 5654 5654 5653 5654 5656 5656 5656 5656 5655 5654 5653 5654 5654 5653 5653 5653 5652 5652 5651 5651 5651 5650 5650 5652 5653 5654 5656 5657 5658 5659 5659 5660 5661 5661 5662 5663 5664 5665 5665 5666 5666 5667 5667 5668 5668 5669 5669 5670 5671 5672 5672 5673 5674 5675 5675 5676 5676 5677 5678 5678 5678 5678 5678 5678
5644 5646 5646 5645 5643 5644 5647 5646 5646 5646 5644 5643 5645 5646 5646 5646 5646 5646 5647 5647 5647 5646 5647 5647 5646 5647 5649 5649 5649 5649 5649 5648 5648 5649 5649 5648 5647 5646 5646 5646 5646 5646 5645 5644 5644 5646 5647 5648 5649 5650 5651 5652 5653 5654 5655 5655 5655 5656 5658 5658 5658 5659 5660 5660 5661 5662 5663 5663 5663 5664 5664 5665 5666 5667 5667 5668 5669 5669 5670 5670 5671 5672 5672 5673 5673 5673
5639 5639 5640 5638 5637 5638 5641 5640 5639 5637 5635 5636 5639 5640 5639 5639 5639 5639 5640 5641 5641 5640 5639 5639 5640 5642 5642 5641 5641 5642 5642 5642 5642 5642 5642 5641 5640 5640 5640 5640 5640 5640 5639 5638 5639 5641 5641 5641 5642 5644 5645 5646 5646 5647 5648 5648 5649 5650 5651 5651 5652 5653 5653 5654 5655 5656 5656 5657 5657 5658 5658 5659 5659 5660 5661 5662 5662 5662 5663 5663 5664 5665 5666 5666 5666 5666
5633 5633 5633 5633 5631 5631 5634 5634 5632 5629 5628 5631 5633 5632 5631 5632 5633 5633 5633 5633 5634 5633 5633 5633 5634 5635 5635 5633 5634 5635 5634 5635 5635 5634 5634 5634 5634 5634 5635 5635 5634 5633 5632 5631 5632 5633 5634 5635 5637 5638 5639 5639 5639 5640 5641 5641 5642 5643 5643 5644 5645 5646 5646 5647 5648 5648 5649 5650 5650 5651 5652 5652 5653 5654 5654 5655 5656 5656 5657 5657 5657 5658 5659 5659 5660 5660
5627 5627 5628 5628 5626 5625 5626 5625 5623 5622 5623 5626 5626 5624 5623 5626 5626 5626 5626 5626 5626 5626 5627 5627 5626 5627 5627 5626 5626 5627 5627 5628 5628 5627 5627 5627 5627 5628 5629 5629 5628 5626 5625 5625 5625 5625 5627 5630 5631 5631 5631 5631 5632 5632 5633 5633 5635 5636 5636 5637 5638 5639 5639 5640 5641 5641 5642 5642 5643 5644 5645 5645 5646 5647 5648 5648 5649 5649 5650 5650 5651 5652 5652 5653 5653 5654
5621 5621 5621 5622 5621 5620 5619 5618 5616 5617 5619 5619 5618 5616 5616 5619 5620 5618 5618 5619 5619 5619 5620 5620 5620 5620 5619 5619 5619 5620 5620 5620 5620 5619 5619 5620 5621 5622 5622 5621 5619 5618 5618 5618 5618 5618 5621 5623 5622 5622 5624 5624 5624 5625 5625 5626 5627 5628 5629 5630 5631 5632 5633 5634 5634 5635 5635 5636 5636 5637 5638 5638 5639 5640 5640 5641 5642 5642 5642 5643 5644 5644 5645 5646 5647 5647
5615 5615 5614 5615 5615 5614 5613 5612 5611 5611 5612 5612 5611 5610 5610 5613 5612 5610 5610 5610 5611 5612 5612 5612 5612 5613 5613 5612 5612 5613 5613 5613 5613 5611 5610 5613 5615 5614 5612 5612 5611 5611 5612 5612 5611 5612 5614 5615 5614 5615 5617 5617 5617 5617 5618 5619 5620 5621 5622 5623 5624 5625 5626 5626 5627 5628 5629 5629 5630 5631 5632 5632 5632 5633 5633 5634 5634 5635 5635 5635 5636 5637 5637 5638 5639 5640
5609 5609 5609 5608 5608 5608 5607 5606 5605 5605 5605 5605 5605 5604 5605 5606 5605 5604 5603 5603 5603 5604 5605 5605 5605 5604 5604 5605 5605 5606 5607 5607 5606 5603 5602 5605 5606 5604 5604 5605 5605 5605 5604 5604 5604 5605 5607 5607 5607 5608 5609 5609 5609 5610 5610 5611 5612 5613 5614 5615 5616 5617 5618 5619 5620 5621 5621 5622 5623 5624 5625 5625 5626 5626 5626 5627 5627 5627 5628 5628 5628 5629 5630 5631 5632 5632
5604 5603 5602 5602 5602 5601 5601 5600 5600 5599 5599 5599 5599 5598 5599 5599 5598 5598 5597 5595 5596 5598 5598 5597 5597 5596 5596 5597 5598 5600 5600 5601 5599 5595 5595 5597 5596 5595 5598 5598 5597 5597 5597 5597 5598 5598 5599 5600 5601 5600 5601 5601 5602 5602 5603 5603 5604 5605 5606 5607 5608 5609 5610 5611 5612 5613 5613 5614 5615 5616 5617 5618 5619 5619 5619 5620 5620 5620 5621 5621 5621 5622 5623 5623 5624 5624
5599 5597 5596 5596 5596 5596 5595 5594 5594 5593 5591 5591 5593 5592 5592 5592 5592 5591 5590 5588 5589 5591 5591 5590 5589 5589 5589 5590 5591 5592 5593 5592 5589 5586 5588 5589 5588 5588 5591 5591 5590 5590 5591 5590 5590 5591 5592 5593 5593 5593 5593 5594 5595 5595 5595 5596 5596 5597 5598 5599 5600 5602 5603 5604 5605 5605 5606 5606 5607 5608 5609 5610 5611 5611 5612 5613 5613 5614 5614 5615 5615 5615 5616 5616 5617 5617
5591 5591 5591 5591 5590 5590 5589 5588 5589 5587 5583 5584 5586 5585 5585 5587 5586 5584 5583 5581 5582 5584 5584 5583 5582 5582 5582 5583 5583 5584 5585 5584 5581 5579 5581 5583 5582 5582 5584 5584 5584 5584 5583 5583 5583 5584 5586 5586 5586 5586 5586 5587 5587 5587 5587 5588 5589 5590 5591 5592 5593 5594 5595 5596 5597 5598 5598 5599 5600 5600 5601 5602 5603 5603 5604 5605 5605 5606 5607 5608 5608 5608 5608 5609 5610 5611
5584 5584 5584 5585 5584 5584 5584 5582 5582 5580 5578 5578 5579 5578 5579 5580 5578 5576 5575 5575 5575 5576 5576 5575 5575 5574 5575 5575 5576 5576 5576 5575 5574 5573 5573 5575 5576 5575 5575 5576 5576 5576 5576 5576 5576 5577 5578 5579 5579 5579 5579 5579 5579 5580 5580 5581 5581 5582 5583 5584 5585 5587 5588 5589 5590 5590 5591 5592 5592 5593 5593 5594 5595 5595 5596 5597 5598 5599 5600 5600 5601 5601 5601 5602 5603 5604
5579 5578 5579 5579 5577 5576 5576 5575 5574 5573 5573 5573 5573 5571 5571 5571 5569 5568 5569 5569 5568 5568 5568 5568 5568 5567 5566 5567 5567 5567 5568 5568 5567 5566 5566 5567 5568 5568 5567 5567 5567 5568 5568 5569 5569 5569 5570 5571 5572 5572 5572 5572 5572 5572 5572 5573 5574 5575 5576 5577 5578 5579 5580 5581 5582 5583 5584 5585 5585 5586 5587 5587 5588 5589 5589 5590 5590 5591 5592 5593 5594 5593 5593 5595 5596 5596
5572 5573 5574 5573 5570 5568 5569 5569 5567 5566 5567 5567 5566 5564 5563 5562 5561 5562 5563 5562 5562 5561 5560 5560 5560 5560 5560 5559 5559 5559 5560 5561 5560 5560 5559 5560 5561 5561 5561 5560 5560 5561 5561 5561 5562 5562 5563 5564 5564 5564 5564 5564 5565 5565 5565 5566 5566 5567 5568 5569 5570 5571 5572 5573 5574 5575 5576 5577 5578 5579 5580 5580 5581 5582 5583 5583 5584 5584 5585 5585 5586 5586 5587 5589 5589 5589
5567 5567 5566 5566 5565 5564 5564 5564 5561 5560 5561 5560 5559 5557 5556 5555 5555 5555 5555 5555 5554 5553 5552 5552 5553 5553 5552 5552 5551 5552 5552 5553 5552 5552 5552 5553 5553 5554 5554 5554 5553 5553 5553 5554 5554 5554 5554 5556 5556 5556 5556 5557 5557 5557 5558 5558 5559 5560 5561 5562 5563 5563 5564 5565 5567 5568 5569 5570 5571 5572 5573 5573 5574 5574 5575 5576 5577 5577 5577 5578 5579 5581 5581 5581 5581 5582
5560 5560 5559 5560 5560 5559 5558 5558 5556 5555 5555 5555 5553 5551 5550 5549 5549 5548 5547 5546 5546 5545 5545 5545 5545 5545 5544 5544 5544 5544 5544 5544 5544 5544 5544 5544 5545 5546 5546 5546 5547 5546 5546 5546 5546 5545 5546 5547 5548 5548 5548 5549 5549 5549 5550 5551 5551 5552 5554 5554 5555 5556 5557 5558 5559 5561 5562 5563 5564 5565 5565 5566 5566 5567 5567 5568 5569 5570 5570 5571 5573 5574 5574 5574 5575 5576
5554 5554 5554 5554 5554 5553 5553 5552 5550 5549 5549 5548 5547 5545 5544 5544 5543 5541 5540 5539 5539 5539 5538 5538 5538 5537 5537 5536 5536 5536 5536 5536 5536 5536 5536 5535 5536 5536 5537 5538 5539 5538 5538 5538 5538 5538 5539 5540 5540 5540 5540 5540 5541 5541 5542 5542 5544 5545 5546 5547 5547 5548 5549 5550 5552 5553 5555 5556 5556 5557 5558 5558 5559 5559 5560 5561 5562 5563 5563 5564 5566 5567 5566 5567 5568 5569
5548 5548 5549 5549 5548 5547 5547 5546 5544 5543 5542 5541 5541 5540 5538 5537 5536 5535 5534 5533 5532 5532 5531 5531 5530 5530 5529 5529 5528 5528 5528 5528 5527 5527 5527 5526 5526 5526 5527 5528 5528 5528 5529 5529 5529 5529 5530 5531 5531 5531 5531 5532 5533 5533 5533 5534 5536 5537 5538 5539 5540 5541 5542 5543 5544 5546 5547 5548 5549 5550 5550 5551 5551 5553 5553 5554 5555 5555 5556 5557 5558 5559 5559 5560 5561 5562
5543 5543 5543 5543 5542 5541 5541 5539 5537 5536 5536 5535 5534 5532 5531 5530 5529 5529 5528 5527 5525 5525 5524 5524 5523 5522 5522 5521 5520 5519 5519 5519 5518 5518 5518 5518 5517 5517 5517 5518 5518 5518 5518 5518 5518 5519 5520 5521 5521 5522 5523 5524 5524 5524 5525 5526 5528 5529 5530 5531 5532 5534 5535 5536 5537 5538 5539 5541 5542 5543 5543 5543 5544 5545 5545 5546 5547 5548 5548 5549 5550 5551 5552 5553 5554 5555
5539 5538 5537 5536 5536 5535 5534 5533 5531 5530 5530 5529 5527 5525 5523 5523 5523 5521 5520 5520 5519 5518 5517 5517 5515 5514 5514 5512 5511 5510 5510 5510 5510 5509 5509 5509 5509 5508 5508 5508 5508 5508 5507 5507 5508 5510 5511 5512 5512 5512 5514 5515 5515 5515 5516 5518 5519 5520 5521 5523 5524 5526 5527 5528 5529 5530 5531 5533 5534 5535 5535 5535 5536 5537 5537 5538 5539 5540 5541 5541 5542 5543 5545 5546 5547 5548
5534 5533 5531 5530 5529 5528 5527 5526 5524 5523 5522 5521 5520 5518 5516 5516 5515 5514 5513 5513 5512 5511 5510 5510 5509 5508 5506 5505 5503 5502 5501 5501 5501 5500 5499 5499 5499 5498 5498 5497 5497 5497 5497 5497 5499 5500 5501 5502 5502 5503 5504 5505 5506 5506 5507 5508 5510 5511 5512 5514 5516 5517 5519 5520 5521 5522 5524 5525 5526 5527 5527 5528 5529 5529 5529 5531 5532 5532 5533 5534 5535 5536 5538 5539 5540 5542